CPS3166 KMRY-KOAK

Flight info

Callsign CPS3166
Flight time N/A
Altitude 11000
Route SNS V111 KARNN/N0198F100 V301 SUNOL
Aircraft C408/M-SDFGRY/S

Departure

Time 2026-04-28 17:51
Airport Monterey Regional Airport (KMRY)

Arrival

Time N/A
Airport San Francisco Bay Oakland International Airport (KOAK)
Time Latitude Longitude Altitude Speed Heading
2026-04-28 17:36 36.58758 -121.83914 209 ft 0 kts 295°
2026-04-28 17:47 36.58759 -121.83918 210 ft 6 kts 283°
2026-04-28 17:48 36.58748 -121.83935 213 ft 1 kts 148°
2026-04-28 17:48 36.58735 -121.83895 209 ft 3 kts 107°
2026-04-28 17:48 36.58718 -121.83874 212 ft 4 kts 174°
2026-04-28 17:48 36.58692 -121.83837 211 ft 9 kts 113°
2026-04-28 17:49 36.58656 -121.83748 205 ft 14 kts 115°
2026-04-28 17:49 36.58623 -121.83631 206 ft 16 kts 111°
2026-04-28 17:49 36.58575 -121.83489 211 ft 20 kts 112°
2026-04-28 17:49 36.58533 -121.83364 206 ft 9 kts 117°
2026-04-28 17:50 36.58520 -121.83351 206 ft 7 kts 163°
2026-04-28 17:50 36.58489 -121.83372 211 ft 1 kts 252°
2026-04-28 17:50 36.58517 -121.83454 207 ft 33 kts 293°
2026-04-28 17:50 36.58700 -121.83989 226 ft 91 kts 292°
2026-04-28 17:51 36.58931 -121.84648 719 ft 91 kts 294°
2026-04-28 17:51 36.59278 -121.85447 1045 ft 114 kts 314°
2026-04-28 17:51 36.60035 -121.85623 1532 ft 124 kts 27°
2026-04-28 17:51 36.60405 -121.84681 2071 ft 133 kts 90°
2026-04-28 17:52 36.60331 -121.83521 2626 ft 135 kts 92°
2026-04-28 17:52 36.60301 -121.82347 3200 ft 137 kts 91°
2026-04-28 17:52 36.60157 -121.79907 4119 ft 148 kts 98°
2026-04-28 17:53 36.60184 -121.78632 4611 ft 153 kts 77°
2026-04-28 17:53 36.60547 -121.77385 5122 ft 154 kts 68°
2026-04-28 17:53 36.60965 -121.76152 5653 ft 155 kts 66°
2026-04-28 17:53 36.61393 -121.74909 6165 ft 157 kts 66°
2026-04-28 17:54 36.61824 -121.73653 6679 ft 158 kts 66°
2026-04-28 17:54 36.62257 -121.72393 7162 ft 159 kts 66°
2026-04-28 17:54 36.62693 -121.71119 7635 ft 160 kts 66°
2026-04-28 17:54 36.63132 -121.69835 8115 ft 162 kts 66°
2026-04-28 17:55 36.63577 -121.68540 8575 ft 163 kts 66°
2026-04-28 17:55 36.64024 -121.67233 9047 ft 165 kts 66°
2026-04-28 17:55 36.64475 -121.65915 9528 ft 166 kts 66°
2026-04-28 17:55 36.64929 -121.64587 10003 ft 168 kts 66°
2026-04-28 17:56 36.65387 -121.63244 10429 ft 169 kts 66°
2026-04-28 17:56 36.65852 -121.61887 10835 ft 172 kts 66°
2026-04-28 17:56 36.66408 -121.60571 11191 ft 176 kts 49°
2026-04-28 17:56 36.67433 -121.59602 11216 ft 194 kts 26°
2026-04-28 17:57 36.68630 -121.58826 11213 ft 193 kts 25°
2026-04-28 17:57 36.69819 -121.58051 11213 ft 193 kts 26°
2026-04-28 17:57 36.71005 -121.57269 11213 ft 193 kts 26°
2026-04-28 17:57 36.72189 -121.56486 11212 ft 193 kts 26°
2026-04-28 17:58 36.73374 -121.55702 11211 ft 193 kts 26°
2026-04-28 17:58 36.74557 -121.54918 11211 ft 193 kts 26°
2026-04-28 17:58 36.75743 -121.54134 11210 ft 193 kts 26°
2026-04-28 17:58 36.76929 -121.53349 11209 ft 193 kts 26°
2026-04-28 17:59 36.78114 -121.52564 11209 ft 193 kts 26°
2026-04-28 17:59 36.79300 -121.51778 11215 ft 194 kts 26°
2026-04-28 17:59 36.80494 -121.50988 11217 ft 195 kts 26°
2026-04-28 17:59 36.81690 -121.50194 11213 ft 195 kts 26°
2026-04-28 18:00 36.82883 -121.49403 11216 ft 195 kts 26°
2026-04-28 18:00 36.84081 -121.48608 11213 ft 195 kts 26°
2026-04-28 18:00 36.85274 -121.47816 11213 ft 194 kts 26°
2026-04-28 18:00 36.86464 -121.47026 11212 ft 194 kts 26°
2026-04-28 18:01 36.87654 -121.46236 11216 ft 194 kts 26°
2026-04-28 18:01 36.88844 -121.45446 11214 ft 193 kts 26°
2026-04-28 18:01 36.90031 -121.44656 11216 ft 193 kts 27°
2026-04-28 18:01 36.91216 -121.43868 11215 ft 193 kts 27°
2026-04-28 18:02 36.92404 -121.43078 11215 ft 193 kts 27°
2026-04-28 18:02 36.93590 -121.42289 11215 ft 193 kts 27°
2026-04-28 18:02 36.94777 -121.41499 11214 ft 193 kts 27°
2026-04-28 18:02 36.95964 -121.40709 11215 ft 193 kts 27°
2026-04-28 18:03 36.97136 -121.39928 11214 ft 194 kts 27°
2026-04-28 18:03 36.98323 -121.39137 11215 ft 193 kts 27°
2026-04-28 18:03 36.99508 -121.38347 11212 ft 193 kts 27°
2026-04-28 18:03 37.00694 -121.37557 11211 ft 193 kts 27°
2026-04-28 18:04 37.01881 -121.36764 11208 ft 194 kts 27°
2026-04-28 18:04 37.03072 -121.35970 11208 ft 194 kts 27°
2026-04-28 18:04 37.04262 -121.35176 11206 ft 193 kts 27°
2026-04-28 18:04 37.05449 -121.34383 11204 ft 194 kts 27°
2026-04-28 18:05 37.06640 -121.33589 11204 ft 194 kts 27°
2026-04-28 18:05 37.07428 -121.33061 11204 ft 195 kts 27°
2026-04-28 18:05 37.09029 -121.31991 11198 ft 195 kts 27°
2026-04-28 18:05 37.10220 -121.31195 11196 ft 194 kts 27°
2026-04-28 18:06 37.11413 -121.30396 11194 ft 195 kts 27°
2026-04-28 18:06 37.12609 -121.29597 11189 ft 195 kts 27°
2026-04-28 18:06 37.13847 -121.28950 11176 ft 192 kts
2026-04-28 18:06 37.15172 -121.28929 11172 ft 190 kts 348°
2026-04-28 18:07 37.16398 -121.29520 11167 ft 189 kts 326°
2026-04-28 18:07 37.17396 -121.30579 11168 ft 188 kts 315°
2026-04-28 18:07 37.18356 -121.31693 11168 ft 188 kts 316°
2026-04-28 18:07 37.19317 -121.32805 11166 ft 188 kts 315°
2026-04-28 18:08 37.20279 -121.33921 11166 ft 189 kts 316°
2026-04-28 18:08 37.21244 -121.35041 11169 ft 189 kts 315°
2026-04-28 18:08 37.22212 -121.36167 11168 ft 190 kts 316°
2026-04-28 18:08 37.23180 -121.37291 11165 ft 189 kts 315°
2026-04-28 18:09 37.24134 -121.38400 11162 ft 189 kts 315°
2026-04-28 18:09 37.25097 -121.39519 11156 ft 189 kts 316°
2026-04-28 18:09 37.26061 -121.40641 11154 ft 189 kts 315°
2026-04-28 18:09 37.27024 -121.41762 11163 ft 189 kts 316°
2026-04-28 18:10 37.27985 -121.42880 11167 ft 189 kts 315°
2026-04-28 18:10 37.28948 -121.44002 11167 ft 189 kts 316°
2026-04-28 18:10 37.29910 -121.45123 11170 ft 189 kts 316°
2026-04-28 18:10 37.30872 -121.46243 11175 ft 189 kts 316°
2026-04-28 18:11 37.31835 -121.47366 11177 ft 189 kts 316°
2026-04-28 18:11 37.32800 -121.48490 11179 ft 189 kts 316°
2026-04-28 18:11 37.33766 -121.49615 11182 ft 190 kts 315°
2026-04-28 18:11 37.34733 -121.50745 11184 ft 190 kts 316°
2026-04-28 18:12 37.35701 -121.51873 11186 ft 190 kts 316°
2026-04-28 18:12 37.36663 -121.52998 11191 ft 188 kts 316°
2026-04-28 18:12 37.37620 -121.54113 11191 ft 187 kts 316°
2026-04-28 18:12 37.38574 -121.55228 11192 ft 187 kts 316°
2026-04-28 18:13 37.39526 -121.56339 11193 ft 187 kts 316°
2026-04-28 18:13 37.40479 -121.57454 11193 ft 187 kts 316°
2026-04-28 18:13 37.41429 -121.58567 11192 ft 187 kts 316°
2026-04-28 18:13 37.42381 -121.59680 11195 ft 187 kts 316°
2026-04-28 18:14 37.43332 -121.60794 11195 ft 187 kts 316°
2026-04-28 18:14 37.44283 -121.61908 11196 ft 187 kts 316°
2026-04-28 18:14 37.45234 -121.63022 11195 ft 187 kts 316°
2026-04-28 18:14 37.46183 -121.64134 11198 ft 186 kts 317°